• En España
  • Lista de países
  • Para 7 días
  • Temperatura del agua
  • Mapa Satelital
  • El tiempo en el mapa
  • Informadores
  • user-avatar
    Iniciar sesión

    Tiempo cada hora Klyuchevka

    Hoy, 25 Septiembre, Martes

    Tiempo Temperatura Precipitaciones Viento Presión Humedad
    00:00 +6°C° 2.2 mm 4 mps 733 mmHg 94%
    01:00 +6°C° 2.2 mm 4 mps 733 mmHg 95%
    02:00 +6°C° 0 mm 4 mps 732 mmHg 94%
    03:00 +6°C° 1.7 mm 4 mps 732 mmHg 94%
    04:00 +6°C° 1.7 mm 5 mps 733 mmHg 93%
    05:00 +5°C° 1.7 mm 6 mps 733 mmHg 93%
    06:00 +5°C° 0.7 mm 6 mps 734 mmHg 92%
    07:00 +5°C° 0.7 mm 6 mps 734 mmHg 91%
    08:00 +5°C° 0 mm 6 mps 735 mmHg 89%
    09:00 +5°C° 0.3 mm 7 mps 736 mmHg 87%
    10:00 +5°C° 0.3 mm 7 mps 736 mmHg 86%
    11:00 +5°C° 0.3 mm 7 mps 737 mmHg 84%
    12:00 +7°C° 0.3 mm 6 mps 738 mmHg 81%
    13:00 +7°C° 0.3 mm 6 mps 739 mmHg 78%
    14:00 +8°C° 0.3 mm 6 mps 740 mmHg 75%
    15:00 +7°C° 0.1 mm 5 mps 741 mmHg 75%
    16:00 +7°C° 0.1 mm 5 mps 742 mmHg 75%
    17:00 +7°C° 0.1 mm 5 mps 742 mmHg 75%
    18:00 +6°C° 0 mm 5 mps 743 mmHg 76%
    19:00 +5°C° 0 mm 5 mps 744 mmHg 78%
    20:00 +5°C° 0 mm 5 mps 745 mmHg 79%
    21:00 +5°C° 0 mm 4 mps 746 mmHg 79%
    22:00 +4°C° 0 mm 4 mps 746 mmHg 79%
    23:00 +4°C° 0 mm 4 mps 747 mmHg 79%

    Mañana, 26 Septiembre, Miércoles

    Tiempo Temperatura Precipitaciones Viento Presión Humedad
    00:00 +3°C° 0 mm 4 mps 748 mmHg 80%
    01:00 +3°C° 0 mm 4 mps 748 mmHg 81%
    02:00 +1°C° 0 mm 4 mps 749 mmHg 81%
    03:00 +1°C° 0 mm 4 mps 749 mmHg 82%
    04:00 +1°C° 0 mm 3 mps 750 mmHg 82%
    05:00 +1°C° 0 mm 3 mps 750 mmHg 82%
    06:00 +2°C° 0 mm 3 mps 750 mmHg 80%
    07:00 +3°C° 0 mm 3 mps 751 mmHg 77%
    08:00 +4°C° 0 mm 3 mps 751 mmHg 75%
    09:00 +5°C° 0 mm 4 mps 751 mmHg 73%
    10:00 +7°C° 0 mm 4 mps 751 mmHg 71%
    11:00 +8°C° 0 mm 4 mps 750 mmHg 69%
    12:00 +10°C° 0 mm 4 mps 750 mmHg 66%
    13:00 +10°C° 0 mm 5 mps 749 mmHg 62%
    14:00 +12°C° 0 mm 5 mps 749 mmHg 58%
    15:00 +10°C° 0 mm 5 mps 748 mmHg 61%
    16:00 +9°C° 0 mm 5 mps 747 mmHg 64%
    17:00 +8°C° 0 mm 5 mps 746 mmHg 67%
    18:00 +8°C° 0.5 mm 5 mps 745 mmHg 71%
    19:00 +7°C° 0.5 mm 6 mps 744 mmHg 76%
    20:00 +5°C° 0.5 mm 7 mps 743 mmHg 80%
    21:00 +5°C° 1.5 mm 7 mps 742 mmHg 83%
    22:00 +5°C° 1.5 mm 7 mps 740 mmHg 85%
    23:00 +5°C° 1.5 mm 8 mps 739 mmHg 87%

    Pasado mañana, 27 Septiembre, Jueves

    Tiempo Temperatura Precipitaciones Viento Presión Humedad
    00:00 +5°C° 1.6 mm 7 mps 738 mmHg 88%
    01:00 +5°C° 1.6 mm 7 mps 737 mmHg 89%
    02:00 +5°C° 1.6 mm 6 mps 735 mmHg 90%
    03:00 +7°C° 1.4 mm 6 mps 735 mmHg 90%
    04:00 +7°C° 1.4 mm 6 mps 735 mmHg 90%
    05:00 +7°C° 1.4 mm 5 mps 734 mmHg 90%
    06:00 +7°C° 0.1 mm 5 mps 735 mmHg 86%
    07:00 +7°C° 0.1 mm 5 mps 735 mmHg 83%
    08:00 +7°C° 0.1 mm 5 mps 735 mmHg 80%
    09:00 +7°C° 0.2 mm 6 mps 735 mmHg 76%
    10:00 +8°C° 0.2 mm 6 mps 736 mmHg 73%
    11:00 +8°C° 0.2 mm 7 mps 736 mmHg 70%
    12:00 +8°C° 0.2 mm 7 mps 736 mmHg 70%
    13:00 +8°C° 0.2 mm 7 mps 736 mmHg 70%
    14:00 +8°C° 0.2 mm 7 mps 737 mmHg 70%
    15:00 +7°C° 0.1 mm 6 mps 737 mmHg 72%
    16:00 +7°C° 0.1 mm 5 mps 737 mmHg 74%
    17:00 +6°C° 0.1 mm 5 mps 738 mmHg 76%
    18:00 +6°C° 0 mm 5 mps 738 mmHg 77%
    19:00 +5°C° 0 mm 4 mps 739 mmHg 78%
    20:00 +5°C° 0 mm 4 mps 739 mmHg 79%
    21:00 +5°C° 0 mm 4 mps 739 mmHg 79%
    22:00 +5°C° 0 mm 4 mps 740 mmHg 79%
    23:00 +4°C° 0 mm 4 mps 740 mmHg 78%

    28 Septiembre, Viernes

    Tiempo Temperatura Precipitaciones Viento Presión Humedad
    00:00 +4°C° 0 mm 4 mps 740 mmHg 80%
    01:00 +4°C° 0 mm 4 mps 740 mmHg 81%
    02:00 +3°C° 0 mm 4 mps 741 mmHg 82%
    03:00 +4°C° 0 mm 4 mps 740 mmHg 83%
    04:00 +4°C° 0 mm 4 mps 740 mmHg 84%
    05:00 +4°C° 0 mm 3 mps 740 mmHg 84%
    06:00 +4°C° 0.9 mm 3 mps 739 mmHg 86%
    07:00 +3°C° 0.9 mm 3 mps 738 mmHg 89%
    08:00 +3°C° 0.9 mm 3 mps 737 mmHg 91%
    09:00 +4°C° 2.6 mm 3 mps 736 mmHg 91%
    10:00 +4°C° 2.6 mm 3 mps 735 mmHg 92%
    11:00 +4°C° 2.6 mm 4 mps 734 mmHg 93%
    12:00 +4°C° 0.8 mm 4 mps 734 mmHg 92%
    13:00 +4°C° 0.8 mm 4 mps 734 mmHg 91%
    14:00 +4°C° 0.8 mm 3 mps 734 mmHg 90%
    15:00 +4°C° 0.1 mm 4 mps 735 mmHg 88%
    16:00 +4°C° 0.1 mm 4 mps 736 mmHg 86%
    17:00 +4°C° 0.1 mm 4 mps 738 mmHg 84%
    18:00 +3°C° 0 mm 4 mps 739 mmHg 85%
    19:00 +1°C° 0 mm 4 mps 740 mmHg 85%
    20:00 0°C° 0 mm 4 mps 741 mmHg 85%
    21:00 +1°C° 0 mm 3 mps 742 mmHg 86%
    22:00 +1°C° 0 mm 3 mps 743 mmHg 88%
    23:00 0°C° 0 mm 3 mps 743 mmHg 89%

    29 Septiembre, Sábado

    Tiempo Temperatura Precipitaciones Viento Presión Humedad
    00:00 0°C° 0 mm 3 mps 744 mmHg 90%
    01:00 0°C° 0 mm 3 mps 745 mmHg 92%
    02:00 -1°C° 0 mm 2 mps 745 mmHg 93%
    03:00 -1°C° 0 mm 3 mps 746 mmHg 92%
    04:00 -1°C° 0 mm 3 mps 746 mmHg 92%
    05:00 -1°C° 0 mm 3 mps 747 mmHg 91%
    06:00 -1°C° 0 mm 3 mps 747 mmHg 87%
    07:00 0°C° 0 mm 3 mps 748 mmHg 83%
    08:00 0°C° 0 mm 4 mps 749 mmHg 79%
    09:00 +1°C° 0 mm 4 mps 749 mmHg 73%
    10:00 +3°C° 0 mm 4 mps 750 mmHg 67%
    11:00 +4°C° 0 mm 4 mps 751 mmHg 61%
    12:00 +4°C° 0 mm 4 mps 751 mmHg 58%
    13:00 +5°C° 0 mm 4 mps 751 mmHg 56%
    14:00 +5°C° 0 mm 4 mps 751 mmHg 54%
    15:00 +4°C° 0 mm 3 mps 752 mmHg 60%
    16:00 +3°C° 0 mm 3 mps 752 mmHg 66%
    17:00 +3°C° 0 mm 2 mps 752 mmHg 72%
    18:00 +2°C° 0 mm 2 mps 753 mmHg 75%
    19:00 +1°C° 0 mm 2 mps 753 mmHg 78%
    20:00 +1°C° 0 mm 2 mps 754 mmHg 81%
    21:00 -1°C° 0 mm 2 mps 754 mmHg 81%
    22:00 -1°C° 0 mm 2 mps 755 mmHg 81%
    23:00 -1°C° 0 mm 2 mps 755 mmHg 80%

    30 Septiembre, Domingo

    Tiempo Temperatura Precipitaciones Viento Presión Humedad
    00:00 -1°C° 0 mm 2 mps 755 mmHg 80%
    01:00 -2°C° 0 mm 2 mps 755 mmHg 79%
    02:00 -2°C° 0 mm 2 mps 755 mmHg 79%
    03:00 -2°C° 0 mm 2 mps 755 mmHg 77%
    04:00 -1°C° 0 mm 3 mps 755 mmHg 75%
    05:00 -1°C° 0 mm 3 mps 755 mmHg 73%
    06:00 -1°C° 0 mm 4 mps 754 mmHg 70%
    07:00 0°C° 0 mm 4 mps 754 mmHg 66%
    08:00 +1°C° 0 mm 5 mps 754 mmHg 62%
    09:00 +3°C° 0 mm 5 mps 753 mmHg 61%
    10:00 +5°C° 0 mm 5 mps 753 mmHg 60%
    11:00 +7°C° 0 mm 6 mps 753 mmHg 59%
    12:00 +7°C° 0 mm 6 mps 752 mmHg 59%
    13:00 +8°C° 0 mm 6 mps 752 mmHg 60%
    14:00 +8°C° 0 mm 5 mps 752 mmHg 60%
    15:00 +8°C° 0 mm 5 mps 752 mmHg 65%
    16:00 +7°C° 0 mm 4 mps 751 mmHg 69%
    17:00 +6°C° 0 mm 4 mps 751 mmHg 73%
    18:00 +6°C° 0 mm 4 mps 751 mmHg 75%
    19:00 +6°C° 0 mm 4 mps 751 mmHg 76%
    20:00 +5°C° 0 mm 4 mps 751 mmHg 78%
    21:00 +5°C° 0 mm 4 mps 751 mmHg 78%
    22:00 +6°C° 0 mm 4 mps 751 mmHg 79%
    23:00 +6°C° 0 mm 4 mps 751 mmHg 80%
    Mostrar más